Back to catalog

REX

AliveMilitaryPO
NORAD 21527·PAYLOAD·🇺🇸 United States

Launched Jun 29, 1991 from Vandenberg Space Force Base

Loading…

Next Passes (next 24 hours)

TLE

FreshSource: Space-Track

Epoch: Sep 14, 2026, 00:06 UTC

1 21527U 91045A   26257.00432633  .00000093  00000-0  34162-4 0  9991
2 21527  89.5280 255.4109 0070415  56.0997 304.6866 14.23597475827737

Track REX in real time with AllMySat

Download on the App Store